Location: Unspecified
(0.0000°N, 0.0000°E)
Time: 03:51:01
(UTC+00:00)

N. Korean satellite - Pass Details

Date: 15 November 2019
Orbit: 456 x 506 km, 97.2° (Epoch: 10 November)

Event Time Altitude Azimuth Distance (km) Brightness Sun altitude
Rises 04:54:07 0° 33° (NNE) 2,568 10.4 -11.9°
Reaches altitude 10° 04:56:32 10° 49° (NE) 1,681 9.7 -11.4°
Maximum altitude 04:59:22 22° 101° (E) 1,117 9.5 -10.7°
Drops below altitude 10° 05:02:11 10° 153° (SSE) 1,666 10.0 -10.0°
Sets 05:04:33 0° 168° (SSE) 2,539 10.7 -9.5°
